Flag for Germany Weather past 2 weeks in Verden (Aller), Lower Saxony, Germany

Now
43 °F

Drizzle. Partly sunny.


Feels Like: 35 °F
Forecast: 39 / 51 °F
Wind: 15 mph from West

Location: Bremen Airport

Current Time: Mar 27, 2015 at 7:05:13 PM

Latest Report: Mar 27, 2015 at 6:20 PM


Visibility: 3 mi

Pressure: 30.01 "Hg

Humidity: 93%

Dew point: 41 °F

Location of Verden (Aller)Location

Historic Weather in Verden (Aller) — Graph

°F

Verden (Aller) temperature yesterday

Maximum temperature yesterday: 46 °F (at 2:20 PM)
Minimum temperature yesterday: 39 °F (at 6:50 AM)
Average temperature yesterday: 42 °F

Past Weeks' High & Low Weather Summary

 TemperatureHumidityPressure
High61 °F (Mar 17, 3:50 PM)100% (Mar 19, 12:20 AM)30.45 "Hg (Mar 19, 12:20 AM)
Low28 °F (Mar 23, 5:20 AM)29% (Mar 19, 2:50 PM)29.65 "Hg (Mar 25, 1:50 PM)
Average43 °F78%30.15 "Hg
* Reported Mar 12 5:20 PM — Mar 27 5:50 PM, Verden (Aller), Weather by CustomWeather, © 2015

Note: Actual official high and low records may vary slightly from our data, if they occured in-between our weather recording intervals... More about our weather records

Advertising

Verden (Aller) weather history for previous 24 hours

 ConditionsComfort  
Time TempWeatherWind HumidityBarometerVisibility
5:50 PM
Fri, Mar 27
45 °FDrizzle. Broken clouds.13 mph87%30.01 "HgN/A
5:20 PM45 °FPartly sunny.14 mph87%29.98 "HgN/A
4:50 PM45 °FPartly sunny.18 mph81%29.98 "HgN/A
4:20 PM46 °FBroken clouds.14 mph82%29.95 "HgN/A
3:50 PM46 °FBroken clouds.16 mph82%29.92 "HgN/A
3:20 PM45 °FScattered showers. Broken clouds.18 mph87%29.92 "HgN/A
2:50 PM45 °FSprinkles. Broken clouds.22 mph87%29.89 "HgN/A
2:20 PM45 °FLight rain. Partly sunny.15 mph93%29.89 "HgN/A
1:50 PM45 °FLight rain. Partly sunny.16 mph93%29.86 "HgN/A
1:20 PM45 °FLight rain. Partly sunny.16 mph93%29.86 "HgN/A
12:50 PM43 °FLight rain. Broken clouds.15 mph93%29.86 "Hg5 mi
12:20 PM45 °FLight rain. Broken clouds.10 mph87%29.86 "HgN/A
11:50 AM43 °FSprinkles. Broken clouds.16 mph87%29.86 "HgN/A
11:20 AM45 °FScattered showers. Broken clouds.10 mph87%29.83 "HgN/A
10:50 AM43 °FSprinkles. Partly sunny.14 mph81%29.83 "HgN/A
10:20 AM45 °FSprinkles. Partly sunny.9 mph87%29.83 "HgN/A
9:50 AM43 °FSprinkles. Partly sunny.14 mph93%29.80 "HgN/A
9:20 AM43 °FLight rain. Broken clouds.13 mph93%29.80 "Hg6 mi
8:50 AM45 °FPartly sunny.17 mph81%29.80 "HgN/A
8:20 AM45 °FBroken clouds.15 mph81%29.77 "HgN/A
7:50 AM43 °FBroken clouds.14 mph87%29.77 "HgN/A
7:20 AM43 °FBroken clouds.12 mph87%29.77 "HgN/A
6:50 AM43 °FPartly sunny.13 mph87%29.74 "HgN/A
6:20 AM43 °FBroken clouds.12 mph87%29.74 "HgN/A
5:50 AM43 °FPassing clouds.10 mph87%29.74 "HgN/A
5:20 AM43 °FPassing clouds.8 mph87%29.74 "HgN/A
4:50 AM41 °FPassing clouds.12 mph87%29.71 "HgN/A
4:20 AM43 °FLight rain. Overcast.13 mph93%29.71 "Hg5 mi
3:50 AM43 °FLight rain. Overcast.10 mph93%29.71 "Hg5 mi
3:20 AM43 °FOvercast.9 mph93%29.71 "Hg6 mi
2:50 AM43 °FOvercast.9 mph87%29.68 "Hg6 mi
2:20 AM43 °FOvercast.8 mph87%29.68 "HgN/A
1:50 AM41 °FOvercast.9 mph93%29.68 "HgN/A
1:20 AM41 °FOvercast.10 mph93%29.68 "HgN/A
12:50 AM41 °FOvercast.10 mph87%29.68 "HgN/A
12:20 AM41 °FPassing clouds.9 mph87%29.68 "HgN/A
11:50 PM
Thu, Mar 26
41 °FPassing clouds.10 mph87%29.68 "Hg5 mi
11:20 PM41 °FPassing clouds.8 mph87%29.71 "Hg5 mi
10:50 PM39 °FPassing clouds.9 mph93%29.71 "Hg5 mi
10:20 PM41 °FPassing clouds.9 mph87%29.71 "HgN/A
9:50 PM39 °FLight rain. Passing clouds.9 mph93%29.71 "HgN/A
9:20 PM41 °FQuite cool.8 mph87%29.71 "HgN/A
8:50 PM39 °FLight rain. Passing clouds.7 mph93%29.71 "HgN/A
8:20 PM39 °FPassing clouds.6 mph93%29.71 "HgN/A
7:50 PM39 °FLight rain. Mostly cloudy.5 mph93%29.71 "HgN/A
7:20 PM41 °FLight rain. Overcast.8 mph87%29.74 "HgN/A
Weather by CustomWeather, © 2015

See weather overviewHow to use our weather pages